Location: Ferchesar
(52.6477°N, 12.4298°E)
Time: 10:08:53
(UTC+01:00)

S-56A Canister/Altair - Pass Details

Date: 12 December 2021
Orbit: 633 x 2499 km, 38.9° (Epoch: 19 January)

Event Time Altitude Azimuth Distance (km) Brightness Sun altitude
Rises 23:18:47 0° 250° (WSW) 5,804 12.0 -59.2°
Enters shadow 23:19:56 - 248° (WSW) 5,488 11.9 -59.3°
Reaches altitude 10° 23:23:17 10° 243° (WSW) 4,562 - -59.5°
Maximum altitude 23:33:40 36° 184° (S) 2,355 - -59.9°
Drops below altitude 10° 23:41:02 10° 121° (ESE) 3,219 - -60.2°
Sets 23:43:39 0° 113° (ESE) 3,953 - -60.2°
